Carrick-on-Shannon, Ireland

11:56 AM IST on August 24, 2017 (GMT +0100)
Carrick-on-Shannon

Weather History for 03973 - December, 2012

Change the Weather History Date:

Thursday, December 6, 2012

  Actual Average Record
Temperature  
Mean Temperature 37 °F -  
Max Temperature 42 °F - - ()
Min Temperature 32 °F - - ()
Degree Days  
Heating Degree Days 28    
Moisture  
Dew Point 39 °F    
Average Humidity 94    
Maximum Humidity 100    
Minimum Humidity 87    
Precipitation  
Precipitation 0.51 in - - ()
Sea Level Pressure  
Sea Level Pressure 29.63 in    
Wind  
Wind Speed 14 mph ()    
Max Wind Speed 25 mph    
Max Gust Speed 36 mph    
Visibility 6.3 miles    
Events Rain    
T = Trace of Precipitation, MM = Missing Value Source: Averaged Metar Reports

Daily Weather History Graph

Daily Weather History Graph

Search for Another Location

Airport or City:

Trip Planner

Search our weather history database for the weather conditions in past years. The results will help you decide how hot, cold, wet, or windy it might be!

Date:

Astronomy

Dec. 06, 2012 Rise Set
Actual Time 8:37 AM GMT 4:14 PM GMT
Civil Twilight 7:55 AM GMT 4:57 PM GMT
Nautical Twilight 7:09 AM GMT 5:43 PM GMT
Astronomical Twilight 6:26 AM GMT 6:25 PM GMT
Moon No Moon Rise 12:33 PM GMT (12/6)
Length of Visible Light 9h 02m
Length of Day
7h 36m
Waning Gibbous, 52% of the Moon is Illuminated
Dec 6
Waning Gibbous
Dec 6
Last Quarter
Dec 13
New
Dec 20
First Quarter
Dec 28
Full

Hourly Weather History & Observations

Time (GMT) Temp. Windchill Dew Point Humidity Pressure Visibility Wind Dir Wind Speed Gust Speed Precip Events Conditions
12:00 AM 33 °F - 32 °F 94% 30.01 in - South 8.9 mph - -  
6:00 AM 38 °F - 37 °F 97% 29.84 in 9 mi SSW 8.9 mph - - Rain Light Rain
7:30 AM 39.2 °F 31.2 °F 39.2 °F 100% 29.74 in 6.2 mi SSW 13.8 mph - N/A Rain Light Rain
8:00 AM 39.2 °F 32.0 °F 37.4 °F 93% 29.74 in 6.2 mi SSW 11.5 mph - N/A Rain Light Rain
8:30 AM 39.2 °F 30.5 °F 39.2 °F 100% 29.71 in 6.2 mi SW 16.1 mph 27.6 mph N/A Rain Light Rain
9:00 AM 41.0 °F 32.8 °F 39.2 °F 93% 29.71 in 6.2 mi SW 16.1 mph - N/A Rain Light Rain
9:30 AM 41.0 °F 32.8 °F 39.2 °F 93% 29.68 in 6.2 mi SSW 16.1 mph - N/A Rain Light Rain
10:00 AM 41.0 °F 33.5 °F 39.2 °F 93% 29.68 in 6.2 mi SW 13.8 mph - N/A Rain Light Rain
10:30 AM 41.0 °F 33.5 °F 39.2 °F 93% 29.68 in 6.2 mi SW 13.8 mph - N/A Rain Light Rain
11:00 AM 41.0 °F 32.2 °F 39.2 °F 93% 29.65 in 6.2 mi WSW 18.4 mph - N/A Rain Light Rain
11:30 AM 42.8 °F 34.0 °F 41.0 °F 93% 29.65 in 6.2 mi WSW 20.7 mph 32.2 mph N/A Rain Light Rain
12:00 PM 42 °F - 42 °F 99% 29.65 in 6 mi WSW 20.1 mph - - Rain Rain
12:00 PM 42.8 °F 34.0 °F 42.8 °F 100% 29.62 in 5.6 mi WSW 20.7 mph 35.7 mph N/A Rain Rain
12:30 PM 42.8 °F 33.5 °F 41.0 °F 93% 29.59 in 6.2 mi WSW 23.0 mph - N/A Rain Light Rain
1:00 PM 42.8 °F 34.0 °F 41.0 °F 93% 29.56 in 6.2 mi WSW 20.7 mph 32.2 mph N/A Rain Light Rain
1:30 PM 42.8 °F 35.8 °F 41.0 °F 93% 29.56 in 5.0 mi West 13.8 mph - N/A Rain Light Rain
2:00 PM 42.8 °F 34.3 °F 41.0 °F 93% 29.53 in 6.2 mi West 19.6 mph - N/A Rain Light Rain
2:30 PM 42.8 °F 34.5 °F 41.0 °F 93% 29.53 in 6.2 mi West 18.4 mph - N/A Rain Light Rain
3:00 PM 42.8 °F 34.8 °F 41.0 °F 93% 29.53 in 6.2 mi West 17.3 mph - N/A Rain Light Rain
3:30 PM 42.8 °F 35.1 °F 41.0 °F 93% 29.50 in 3.7 mi West 16.1 mph - N/A Rain Light Rain
4:00 PM 41.0 °F 30.7 °F 39.2 °F 93% 29.50 in 4.3 mi West 25.3 mph - N/A Rain Light Rain
4:30 PM 41.0 °F 32.5 °F 39.2 °F 93% 29.53 in 3.7 mi WNW 17.3 mph - N/A Rain Light Rain
5:00 PM 39.2 °F 29.6 °F 37.4 °F 93% 29.53 in 6.2 mi WNW 19.6 mph - N/A   Mostly Cloudy
5:30 PM 39.2 °F 28.7 °F 37.4 °F 93% 29.53 in 6.2 mi WNW 23.0 mph 34.5 mph N/A   Mostly Cloudy
6:00 PM 38 °F - 36 °F 88% 29.58 in 16 mi WNW 22.4 mph - - Rain Light Rain
6:00 PM 39.2 °F 29.0 °F 35.6 °F 87% 29.53 in 6.2 mi WNW 21.9 mph - N/A   Mostly Cloudy